Regional Weather Roundup
Issued by NWS Nashville, TN

Home | Current Version | Previous Version | Text Only | Print | Product List | Glossary On
Versions: 1 2 3 4 5 6 7 8 9 10 11 12 13 14 15 16 17 18 19 20 21 22 23 24 25 26 27 28 29 30 31 32 33 34 35 36 37 38 39 40 41 42 43 44 45 46 47 48 49 50
000
ASUS44 KOHX 250015
RWROHX
MIDDLE TENNESSEE HOURLY WEATHER ROUNDUP
NATIONAL WEATHER SERVICE NASHVILLE TN
700 PM CDT THU APR 24 2014

NOTE: "FAIR" INDICATES FEW OR NO CLOUDS BELOW 12,000 FEET WITH
NO SIGNIFICANT WEATHER AND/OR OBSTRUCTIONS TO VISIBILITY.

* THESE REPORTS ARE NOT UNDER NWS QUALITY CONTROL AND MAY NOT
  REPORT WEATHER SUCH AS PRECIPITATION AND FOG.


TNZ005>011-023>034-057-059-062>066-078-080-250100
...NORTHERN MIDDLE TENNESSEE...

CITY           SKY/WX    TMP DP  RH WIND       PRES   REMARKS
BAXTER*          N/A     73  46  38 CALM        N/A
BRENTWOOD*       N/A     77  52  41 CALM        N/A
CLARKSVILLE    PTCLDY    75  47  36 S9        29.76R
COLUMBIA       PTCLDY    75  59  57 S7        29.80R
CROSSVILLE     MOCLDY    70  37  29 VRB7      29.89F
DICKSON        PTCLDY    75  46  35 S9        29.79R
FAIRFIELD GLAD   N/A     68  41  37 S1          N/A
KINGSTON SPGS*   N/A     79  50  36 SW1         N/A
LAFAYETTE*       N/A     75  41  29 S5          N/A
MONTEREY         N/A     70  41  35 CALM        N/A
MOUNT JULIET*    N/A     77  50  38 CALM        N/A
NASHVILLE      MOCLDY    76  48  37 S8        29.80S
OLD HICKORY*     N/A     75  54  46 MISG        N/A
PEGRAM*          N/A    N/A N/A N/A SE2         N/A
SMYRNA         MOCLDY    76  49  38 S5        29.81S
SPARTA         CLEAR     70  52  52 CALM      29.83F
$$
TNZ056-058-060-061-075>077-079-093>097-250100
...SOUTHERN MIDDLE TENNESSEE...

CITY           SKY/WX    TMP DP  RH WIND       PRES   REMARKS
EAGLEVILLE*      N/A    N/A N/A N/A CALM        N/A
FAIRVIEW*        N/A     75  52  43 CALM        N/A
HOHENWALD*       N/A     75  48  38 CALM        N/A
LEWISBURG      MOCLDY    74  54  49 CALM      29.81S
MCMINNVILLE      N/A     74  50  42 CALM      29.84F
MOUNT PLEASANT   N/A     75  55  50 CALM        N/A
SHELBYVILLE    MOCLDY    73  54  49 S7        29.83F
TULLAHOMA      CLEAR     73  48  40 S7        29.86R
WINCHESTER     CLEAR     75  48  38 S5        29.86R
$$


...KEY TO REMARKS...
VSB - VISIBILITY IN MILES
WCI - WIND CHILL INDEX
HX  - HEAT INDEX




USA.gov is the U.S. government's official web portal to all federal, state and local government web resources and services.